| time (UTC) | temp F | wind direction | speed knots | gust knots | rain 1hr in | rain 24hr in | rain mn in | humidity % | barometer mb |
| 20260505112604 | 54 | 224 | 0.9 | 0.9 | 0.00 | 0.32 | 0.32 | 65 | 1008.1 |
| 20260505112103 | 54 | 231 | 0.9 | 2.6 | 0.00 | 0.32 | 0.32 | 66 | 1008.3 |
| 20260505111601 | 54 | 3 | 1.7 | 3.5 | 0.00 | 0.32 | 0.32 | 67 | 1008.1 |
| 20260505111057 | 54 | 165 | 0.9 | 0.9 | 0.00 | 0.32 | 0.32 | 65 | 1008.1 |
| 20260505110554 | 54 | 47 | 2.6 | 3.5 | 0.00 | 0.32 | 0.32 | 66 | 1008.0 |
| 20260505102027 | 55 | 27 | 1.7 | 1.7 | 0.00 | 0.32 | 0.32 | 70 | 1007.7 |
| 20260505101525 | 55 | 244 | 0.9 | 1.7 | 0.00 | 0.32 | 0.32 | 69 | 1007.4 |
| 20260505101021 | 55 | 142 | 1.7 | 3.5 | 0.00 | 0.32 | 0.32 | 69 | 1007.2 |
| 20260505100519 | 55 | 164 | 0.9 | 1.7 | 0.00 | 0.32 | 0.32 | 67 | 1007.3 |
| 20260505100015 | 55 | 114 | 1.7 | 2.6 | 0.00 | 0.32 | 0.32 | 72 | 1007.2 |
| 20260505095511 | 55 | 302 | 1.7 | 1.7 | 0.00 | 0.32 | 0.32 | 71 | 1007.1 |
| 20260505095008 | 55 | 216 | 0.9 | 0.9 | 0.00 | 0.32 | 0.32 | 70 | 1007.2 |
| 20260505094504 | 55 | 56 | 3.5 | 6.1 | 0.00 | 0.32 | 0.32 | 71 | 1006.9 |
| 20260505094001 | 55 | 250 | 0.9 | 1.7 | 0.00 | 0.32 | 0.32 | 72 | 1007.2 |
| 20260505093457 | 55 | 8 | 1.7 | 1.7 | 0.00 | 0.32 | 0.32 | 72 | 1007.2 |
| 20260505092955 | 55 | 89 | 0.9 | 0.9 | 0.00 | 0.32 | 0.32 | 73 | 1007.3 |
| 20260505092452 | 55 | 92 | 0.9 | 0.9 | 0.00 | 0.32 | 0.32 | 74 | 1007.3 |
| 20260505091949 | 55 | 30 | 2.6 | 3.5 | 0.00 | 0.32 | 0.32 | 73 | 1007.2 |
| 20260505091447 | 55 | 201 | 0.9 | 1.7 | 0.00 | 0.32 | 0.32 | 74 | 1007.0 |
| 20260505090945 | 55 | 28 | 1.7 | 3.5 | 0.00 | 0.32 | 0.32 | 76 | 1007.0 |
| 20260505090443 | 55 | 62 | 0.9 | 0.9 | 0.00 | 0.32 | 0.32 | 79 | 1006.3 |
| 20260505085940 | 55 | 237 | 0.9 | 0.9 | 0.00 | 0.32 | 0.32 | 76 | 1006.4 |
| 20260505085438 | 55 | 56 | 4.3 | 7.0 | 0.00 | 0.32 | 0.32 | 78 | 1006.6 |
| 20260505084936 | 56 | 43 | 2.6 | 3.5 | 0.00 | 0.32 | 0.32 | 77 | 1006.5 |
| 20260505084434 | 56 | 53 | 1.7 | 2.6 | 0.00 | 0.32 | 0.32 | 77 | 1006.3 |
| 20260505083931 | 56 | 204 | 0.0 | 0.9 | 0.00 | 0.32 | 0.32 | 79 | 1006.3 |
| 20260505083428 | 56 | 104 | 1.7 | 3.5 | 0.00 | 0.32 | 0.32 | 78 | 1006.1 |
| 20260505082924 | 57 | 65 | 4.3 | 7.8 | 0.00 | 0.32 | 0.32 | 81 | 1006.0 |
| 20260505082420 | 57 | 239 | 0.0 | 0.0 | 0.00 | 0.32 | 0.32 | 84 | 1006.0 |
| 20260505081918 | 57 | 176 | 0.0 | 0.9 | 0.00 | 0.32 | 0.32 | 84 | 1005.9 |
| 20260505081415 | 57 | 340 | 1.7 | 1.7 | 0.00 | 0.32 | 0.32 | 83 | 1006.1 |
| 20260505080911 | 57 | 68 | 1.7 | 5.2 | 0.00 | 0.32 | 0.32 | 86 | 1005.9 |
| 20260505080407 | 58 | 68 | 1.7 | 1.7 | 0.00 | 0.32 | 0.32 | 87 | 1006.2 |
| 20260505075903 | 58 | 73 | 0.9 | 1.7 | 0.00 | 0.32 | 0.32 | 88 | 1005.9 |
| 20260505075359 | 58 | 26 | 1.7 | 3.5 | 0.00 | 0.32 | 0.32 | 88 | 1005.8 |
| 20260505074857 | 58 | 121 | 0.0 | 0.9 | 0.00 | 0.32 | 0.32 | 88 | 1006.0 |
| 20260505074354 | 58 | 99 | 1.7 | 2.6 | 0.00 | 0.32 | 0.32 | 89 | 1006.0 |
| 20260505073851 | 58 | 31 | 1.7 | 2.6 | 0.31 | 0.32 | 0.32 | 90 | 1005.8 |
| 20260505073349 | 58 | 189 | 1.7 | 3.5 | 1.09 | 0.32 | 0.32 | 88 | 1005.3 |
| 20260505072846 | 60 | 92 | 0.0 | 0.0 | 1.63 | 0.27 | 0.27 | 85 | 1004.7 |
| 20260505072342 | 62 | 100 | 0.9 | 1.7 | 0.85 | 0.14 | 0.14 | 81 | 1005.3 |
| 20260505071838 | 63 | 55 | 0.9 | 1.7 | 0.00 | 0.00 | 0.00 | 76 | 1005.6 |
| 20260505071335 | 63 | 206 | 0.0 | 0.9 | 0.00 | 0.00 | 0.00 | 74 | 1005.2 |
| 20260505070833 | 64 | 225 | 0.0 | 0.9 | 0.00 | 0.00 | 0.00 | 73 | 1005.0 |
| 20260505070329 | 64 | 137 | 0.0 | 0.0 | 0.00 | 0.00 | 0.00 | 71 | 1005.0 |
| 20260505065824 | 65 | 85 | 0.9 | 1.7 | 0.00 | 0.00 | 0.00 | 68 | 1005.9 |
| 20260505065321 | 66 | 27 | 1.7 | 2.6 | 0.00 | 0.00 | 0.00 | 68 | 1005.2 |
| 20260505064818 | 67 | 27 | 2.6 | 3.5 | 0.00 | 0.00 | 0.00 | 70 | 1004.9 |
| 20260505064315 | 68 | 189 | 0.0 | 0.0 | 0.00 | 0.00 | 0.00 | 77 | 1005.0 |
| 20260505063814 | 68 | 148 | 0.0 | 0.0 | 0.00 | 0.00 | 0.00 | 77 | 1004.8 |
| 20260505063309 | 68 | 175 | 0.9 | 0.9 | 0.00 | 0.00 | 0.00 | 76 | 1004.8 |
| 20260505062806 | 68 | 169 | 0.0 | 0.0 | 0.00 | 0.00 | 0.00 | 76 | 1004.8 |
| 20260505062304 | 67 | 249 | 0.9 | 0.9 | 0.00 | 0.00 | 0.00 | 77 | 1004.3 |
| 20260505061800 | 67 | 169 | 0.0 | 0.9 | 0.00 | 0.00 | 0.00 | 77 | 1004.4 |
| 20260505061258 | 67 | 198 | 0.0 | 0.9 | 0.00 | 0.00 | 0.00 | 77 | 1004.3 |
| 20260505060755 | 67 | 190 | 0.0 | 0.0 | 0.00 | 0.00 | 0.00 | 76 | 1004.3 |
| 20260505060252 | 67 | 182 | 0.9 | 0.9 | 0.00 | 0.00 | 0.00 | 76 | 1004.3 |
| 20260505055747 | 67 | 213 | 0.9 | 0.9 | 0.00 | 0.00 | 0.00 | 77 | 1004.2 |
| 20260505055244 | 67 | 165 | 0.0 | 0.9 | 0.00 | 0.00 | 0.00 | 76 | 1003.8 |
| 20260505054742 | 67 | 38 | 1.7 | 1.7 | 0.00 | 0.00 | 0.00 | 74 | 1003.9 |
| 20260505054239 | 67 | 170 | 0.0 | 0.9 | 0.00 | 0.00 | 0.00 | 75 | 1004.0 |
| 20260505053737 | 67 | 212 | 0.0 | 0.0 | 0.00 | 0.00 | 0.00 | 75 | 1003.9 |
| 20260505053233 | 67 | 215 | 0.9 | 1.7 | 0.00 | 0.00 | 0.00 | 74 | 1003.8 |
| 20260505052731 | 67 | 188 | 0.0 | 0.0 | 0.00 | 0.00 | 0.00 | 74 | 1003.8 |
| 20260505052228 | 68 | 185 | 0.0 | 0.0 | 0.00 | 0.00 | 0.00 | 73 | 1003.7 |
| 20260505051725 | 68 | 188 | 0.0 | 0.0 | 0.00 | 0.00 | 0.00 | 73 | 1003.5 |
| 20260505051223 | 68 | 189 | 0.0 | 0.0 | 0.00 | 0.00 | 0.00 | 73 | 1003.7 |
| 20260505050720 | 68 | 195 | 0.0 | 0.0 | 0.00 | 0.00 | 0.00 | 72 | 1003.4 |
| 20260505050219 | 68 | 194 | 0.0 | 0.0 | 0.00 | 0.00 | 0.00 | 71 | 1003.5 |
| 20260505041648 | 70 | 192 | 0.9 | 1.7 | 0.00 | 0.00 | 0.00 | 70 | 1003.2 |
| 20260505041146 | 71 | 183 | 0.9 | 0.9 | 0.00 | 0.00 | 0.00 | 69 | 1003.5 |
| 20260505040643 | 71 | 182 | 0.0 | 0.0 | 0.00 | 0.00 | 0.00 | 69 | 1003.3 |
| 20260505040140 | 71 | 180 | 0.0 | 0.0 | 0.00 | 0.00 | 0.00 | 68 | 1003.2 |
| 20260505035636 | 72 | 174 | 0.9 | 0.9 | 0.00 | 0.00 | 0.00 | 67 | 1003.2 |
| 20260505035132 | 72 | 183 | 0.0 | 0.0 | 0.00 | 0.00 | 0.00 | 67 | 1003.3 |
| 20260505034629 | 72 | 186 | 0.0 | 0.9 | 0.00 | 0.00 | 0.00 | 66 | 1003.7 |
| 20260505034126 | 72 | 182 | 1.7 | 1.7 | 0.00 | 0.00 | 0.00 | 66 | 1003.5 |
| 20260505033622 | 73 | 189 | 0.9 | 1.7 | 0.00 | 0.00 | 0.00 | 65 | 1003.4 |
| 20260505033121 | 73 | 115 | 0.9 | 2.6 | 0.00 | 0.00 | 0.00 | 64 | 1003.3 |
| 20260505032619 | 73 | 143 | 1.7 | 2.6 | 0.00 | 0.00 | 0.00 | 64 | 1003.4 |
| 20260505032115 | 73 | 152 | 1.7 | 2.6 | 0.00 | 0.00 | 0.00 | 64 | 1003.3 |
| 20260505031612 | 73 | 91 | 1.7 | 2.6 | 0.00 | 0.00 | 0.00 | 63 | 1003.7 |
| 20260505031108 | 73 | 97 | 1.7 | 2.6 | 0.00 | 0.00 | 0.00 | 63 | 1004.2 |
| 20260505030605 | 73 | 188 | 0.9 | 0.9 | 0.00 | 0.00 | 0.00 | 63 | 1004.1 |
| 20260505030101 | 73 | 142 | 2.6 | 2.6 | 0.00 | 0.00 | 0.00 | 63 | 1004.2 |
| 20260505025557 | 73 | 159 | 0.9 | 1.7 | 0.00 | 0.00 | 0.00 | 63 | 1004.2 |
| 20260505025056 | 73 | 178 | 0.0 | 0.0 | 0.00 | 0.00 | 0.00 | 62 | 1004.1 |
| 20260505024553 | 73 | 113 | 1.7 | 2.6 | 0.00 | 0.00 | 0.00 | 62 | 1003.9 |
| 20260505024050 | 73 | 211 | 0.0 | 0.9 | 0.00 | 0.00 | 0.00 | 62 | 1004.0 |
| 20260505023547 | 73 | 168 | 0.0 | 0.0 | 0.00 | 0.00 | 0.00 | 61 | 1003.9 |
| 20260505023045 | 73 | 181 | 0.0 | 0.0 | 0.00 | 0.00 | 0.00 | 61 | 1003.8 |
| 20260505022542 | 74 | 215 | 0.0 | 0.9 | 0.00 | 0.00 | 0.00 | 61 | 1004.1 |
| 20260505022039 | 74 | 181 | 0.9 | 0.9 | 0.00 | 0.00 | 0.00 | 61 | 1003.9 |
| 20260505021536 | 74 | 221 | 1.7 | 1.7 | 0.00 | 0.00 | 0.00 | 60 | 1003.8 |
| 20260505021033 | 74 | 216 | 1.7 | 1.7 | 0.00 | 0.00 | 0.00 | 60 | 1003.6 |
| 20260505020532 | 74 | 223 | 1.7 | 2.6 | 0.00 | 0.00 | 0.00 | 59 | 1003.1 |
| 20260505020030 | 74 | 213 | 0.9 | 0.9 | 0.00 | 0.00 | 0.00 | 58 | 1003.1 |
| 20260505015527 | 74 | 210 | 1.7 | 1.7 | 0.00 | 0.00 | 0.00 | 58 | 1003.3 |
| 20260505015023 | 74 | 230 | 4.3 | 7.0 | 0.00 | 0.00 | 0.00 | 57 | 1003.0 |
| 20260505014520 | 75 | 217 | 1.7 | 1.7 | 0.00 | 0.00 | 0.00 | 56 | 1002.8 |
| 20260505014018 | 75 | 146 | 0.9 | 0.9 | 0.00 | 0.00 | 0.00 | 55 | 1002.7 |
| 20260505013515 | 75 | 180 | 0.0 | 0.0 | 0.00 | 0.00 | 0.00 | 55 | 1002.9 |
| 20260505013012 | 75 | 160 | 1.7 | 2.6 | 0.00 | 0.00 | 0.00 | 54 | 1002.4 |
| 20260505012510 | 75 | 170 | 0.0 | 0.9 | 0.00 | 0.00 | 0.00 | 54 | 1002.6 |
| 20260505012007 | 75 | 96 | 1.7 | 1.7 | 0.00 | 0.00 | 0.00 | 54 | 1002.8 |
| 20260505011502 | 75 | 138 | 1.7 | 1.7 | 0.00 | 0.00 | 0.00 | 53 | 1002.6 |
| 20260505010959 | 76 | 166 | 0.9 | 0.9 | 0.00 | 0.00 | 0.00 | 53 | 1002.5 |
| 20260505010455 | 76 | 136 | 0.9 | 0.9 | 0.00 | 0.00 | 0.00 | 53 | 1002.4 |
| 20260505005951 | 76 | 191 | 0.9 | 0.9 | 0.00 | 0.00 | 0.00 | 52 | 1002.7 |
| 20260505005448 | 76 | 150 | 0.9 | 1.7 | 0.00 | 0.00 | 0.00 | 51 | 1002.6 |
| 20260505004946 | 77 | 196 | 0.0 | 0.9 | 0.00 | 0.00 | 0.00 | 51 | 1002.5 |
| 20260505004442 | 77 | 137 | 0.0 | 0.0 | 0.00 | 0.00 | 0.00 | 50 | 1002.6 |
| 20260505003939 | 77 | 182 | 0.0 | 0.9 | 0.00 | 0.00 | 0.00 | 49 | 1002.6 |
| 20260505003436 | 77 | 226 | 1.7 | 1.7 | 0.00 | 0.00 | 0.00 | 49 | 1002.5 |
| 20260505002932 | 78 | 210 | 0.9 | 0.9 | 0.00 | 0.00 | 0.00 | 48 | 1002.7 |
| 20260505002429 | 78 | 214 | 1.7 | 1.7 | 0.00 | 0.00 | 0.00 | 47 | 1002.5 |
| 20260505001927 | 78 | 138 | 0.9 | 2.6 | 0.00 | 0.00 | 0.00 | 48 | 1003.0 |
| 20260505001425 | 78 | 201 | 0.0 | 0.9 | 0.00 | 0.00 | 0.00 | 47 | 1002.7 |
| 20260505000921 | 78 | 212 | 0.9 | 0.9 | 0.00 | 0.00 | 0.00 | 48 | 1002.9 |
| 20260505000420 | 78 | 202 | 1.7 | 2.6 | 0.00 | 0.00 | 0.00 | 47 | 1002.7 |
| 20260504235916 | 79 | 223 | 0.9 | 1.7 | 0.00 | 0.00 | 0.00 | 46 | 1002.9 |
| 20260504235413 | 79 | 223 | 0.9 | 2.6 | 0.00 | 0.00 | 0.00 | 45 | 1002.9 |
| 20260504234909 | 79 | 198 | 0.9 | 0.9 | 0.00 | 0.00 | 0.00 | 45 | 1002.8 |
| 20260504234407 | 79 | 147 | 0.9 | 1.7 | 0.00 | 0.00 | 0.00 | 44 | 1002.8 |
| 20260504233903 | 80 | 207 | 3.5 | 3.5 | 0.00 | 0.00 | 0.00 | 44 | 1002.8 |
| 20260504233359 | 80 | 74 | 0.9 | 1.7 | 0.00 | 0.00 | 0.00 | 43 | 1002.9 |
| 20260504232856 | 80 | 220 | 1.7 | 1.7 | 0.00 | 0.00 | 0.00 | 44 | 1003.0 |
| 20260504232353 | 80 | 219 | 5.2 | 7.8 | 0.00 | 0.00 | 0.00 | 43 | 1003.1 |
| 20260504231850 | 80 | 109 | 1.7 | 1.7 | 0.00 | 0.00 | 0.00 | 43 | 1003.0 |
| 20260504231346 | 80 | 168 | 5.2 | 7.0 | 0.00 | 0.00 | 0.00 | 43 | 1002.9 |
| 20260504230843 | 80 | 250 | 6.1 | 7.8 | 0.00 | 0.00 | 0.00 | 43 | 1002.9 |
| 20260504230340 | 81 | 132 | 1.7 | 1.7 | 0.00 | 0.00 | 0.00 | 43 | 1003.0 |
| 20260504225839 | 81 | 108 | 3.5 | 3.5 | 0.00 | 0.00 | 0.00 | 42 | 1003.1 |
| 20260504225335 | 81 | 234 | 3.5 | 6.1 | 0.00 | 0.00 | 0.00 | 42 | 1002.9 |
| 20260504224833 | 81 | 254 | 5.2 | 7.0 | 0.00 | 0.00 | 0.00 | 42 | 1002.8 |
| 20260504224329 | 81 | 241 | 4.3 | 7.0 | 0.00 | 0.00 | 0.00 | 42 | 1003.0 |
| 20260504223826 | 81 | 224 | 3.5 | 3.5 | 0.00 | 0.00 | 0.00 | 43 | 1002.8 |
| 20260504223321 | 81 | 204 | 2.6 | 5.2 | 0.00 | 0.00 | 0.00 | 42 | 1002.8 |
| 20260504222818 | 81 | 227 | 3.5 | 6.1 | 0.00 | 0.00 | 0.00 | 40 | 1002.9 |
| 20260504222315 | 81 | 195 | 5.2 | 6.1 | 0.00 | 0.00 | 0.00 | 41 | 1003.0 |
| 20260504221814 | 81 | 202 | 6.1 | 7.8 | 0.00 | 0.00 | 0.00 | 41 | 1003.0 |
| 20260504221310 | 81 | 173 | 3.5 | 3.5 | 0.00 | 0.00 | 0.00 | 40 | 1003.0 |
| 20260504220807 | 82 | 216 | 3.5 | 7.0 | 0.00 | 0.00 | 0.00 | 39 | 1003.1 |
| 20260504220304 | 82 | 214 | 3.5 | 5.2 | 0.00 | 0.00 | 0.00 | 39 | 1003.1 |
| 20260504215801 | 82 | 237 | 9.6 | 11.3 | 0.00 | 0.00 | 0.00 | 38 | 1003.2 |
| 20260504215257 | 83 | 229 | 6.1 | 7.8 | 0.00 | 0.00 | 0.00 | 39 | 1003.0 |
| 20260504214753 | 84 | 223 | 5.2 | 7.8 | 0.00 | 0.00 | 0.00 | 38 | 1003.0 |
| 20260504214250 | 84 | 222 | 7.8 | 8.7 | 0.00 | 0.00 | 0.00 | 37 | 1002.9 |
| 20260504213747 | 85 | 210 | 5.2 | 7.0 | 0.00 | 0.00 | 0.00 | 39 | 1003.1 |
| 20260504213243 | 86 | 230 | 4.3 | 6.1 | 0.00 | 0.00 | 0.00 | 38 | 1003.1 |
| 20260504212740 | 85 | 111 | 0.9 | 1.7 | 0.00 | 0.00 | 0.00 | 35 | 1003.0 |
| 20260504212236 | 84 | 160 | 1.7 | 2.6 | 0.00 | 0.00 | 0.00 | 36 | 1002.9 |
| 20260504211734 | 83 | 184 | 2.6 | 3.5 | 0.00 | 0.00 | 0.00 | 40 | 1003.1 |
| 20260504211230 | 84 | 73 | 3.5 | 5.2 | 0.00 | 0.00 | 0.00 | 38 | 1003.2 |
| 20260504210728 | 84 | 218 | 2.6 | 3.5 | 0.00 | 0.00 | 0.00 | 37 | 1003.3 |
| 20260504210225 | 85 | 174 | 4.3 | 6.1 | 0.00 | 0.00 | 0.00 | 39 | 1003.3 |
| 20260504205722 | 86 | 177 | 4.3 | 6.1 | 0.00 | 0.00 | 0.00 | 37 | 1003.1 |
| 20260504205219 | 85 | 237 | 7.8 | 8.7 | 0.00 | 0.00 | 0.00 | 37 | 1003.3 |
| 20260504204717 | 85 | 99 | 3.5 | 7.0 | 0.00 | 0.00 | 0.00 | 35 | 1003.3 |
| 20260504204216 | 85 | 235 | 6.1 | 7.8 | 0.00 | 0.00 | 0.00 | 37 | 1003.3 |
| 20260504203715 | 86 | 225 | 5.2 | 7.0 | 0.00 | 0.00 | 0.00 | 35 | 1003.6 |
| 20260504203212 | 86 | 228 | 3.5 | 5.2 | 0.00 | 0.00 | 0.00 | 38 | 1003.6 |
| 20260504202711 | 86 | 191 | 3.5 | 6.1 | 0.00 | 0.00 | 0.00 | 37 | 1003.7 |
| 20260504202209 | 87 | 220 | 3.5 | 5.2 | 0.00 | 0.00 | 0.00 | 36 | 1003.7 |
| 20260504201706 | 86 | 215 | 4.3 | 7.0 | 0.00 | 0.00 | 0.00 | 36 | 1003.9 |
| 20260504201203 | 86 | 217 | 2.6 | 5.2 | 0.00 | 0.00 | 0.00 | 36 | 1003.9 |
| 20260504200701 | 86 | 285 | 9.6 | 11.3 | 0.00 | 0.00 | 0.00 | 36 | 1004.0 |
| 20260504200157 | 86 | 133 | 1.7 | 3.5 | 0.00 | 0.00 | 0.00 | 37 | 1004.0 |
| 20260504195653 | 86 | 220 | 3.5 | 3.5 | 0.00 | 0.00 | 0.00 | 39 | 1004.1 |
| 20260504195149 | 85 | 227 | 1.7 | 1.7 | 0.00 | 0.00 | 0.00 | 37 | 1004.1 |
| 20260504194646 | 84 | 230 | 5.2 | 7.8 | 0.00 | 0.00 | 0.00 | 37 | 1004.3 |
| 20260504194142 | 84 | 152 | 3.5 | 5.2 | 0.00 | 0.00 | 0.00 | 40 | 1004.2 |
| 20260504193639 | 85 | 195 | 4.3 | 7.0 | 0.00 | 0.00 | 0.00 | 36 | 1004.6 |
| 20260504193137 | 85 | 100 | 0.9 | 1.7 | 0.00 | 0.00 | 0.00 | 37 | 1004.6 |
| 20260504192634 | 85 | 219 | 3.5 | 3.5 | 0.00 | 0.00 | 0.00 | 38 | 1004.5 |
| 20260504192132 | 86 | 271 | 5.2 | 7.8 | 0.00 | 0.00 | 0.00 | 36 | 1004.7 |
| 20260504191631 | 85 | 211 | 3.5 | 5.2 | 0.00 | 0.00 | 0.00 | 36 | 1004.5 |
| 20260504191127 | 84 | 212 | 1.7 | 2.6 | 0.00 | 0.00 | 0.00 | 38 | 1004.6 |
| 20260504190623 | 85 | 239 | 4.3 | 6.1 | 0.00 | 0.00 | 0.00 | 39 | 1004.8 |
| 20260504190120 | 85 | 229 | 5.2 | 7.8 | 0.00 | 0.00 | 0.00 | 38 | 1004.8 |
| 20260504185616 | 86 | 226 | 2.6 | 3.5 | 0.00 | 0.00 | 0.00 | 38 | 1004.8 |
| 20260504185113 | 84 | 253 | 4.3 | 5.2 | 0.00 | 0.00 | 0.00 | 39 | 1004.7 |
| 20260504184608 | 84 | 220 | 2.6 | 3.5 | 0.00 | 0.00 | 0.00 | 38 | 1004.9 |
| 20260504184103 | 85 | 230 | 4.3 | 6.1 | 0.00 | 0.00 | 0.00 | 36 | 1004.9 |
| 20260504183601 | 84 | 218 | 2.6 | 2.6 | 0.00 | 0.00 | 0.00 | 39 | 1005.0 |
| 20260504183059 | 83 | 219 | 2.6 | 2.6 | 0.00 | 0.00 | 0.00 | 38 | 1004.7 |
| 20260504182556 | 83 | 219 | 6.1 | 9.6 | 0.00 | 0.00 | 0.00 | 36 | 1005.3 |
| 20260504182053 | 84 | 222 | 7.0 | 7.8 | 0.00 | 0.00 | 0.00 | 34 | 1005.0 |
| 20260504181550 | 82 | 233 | 0.9 | 0.9 | 0.00 | 0.00 | 0.00 | 37 | 1005.2 |
| 20260504181048 | 82 | 105 | 0.9 | 0.9 | 0.00 | 0.00 | 0.00 | 37 | 1005.4 |
| 20260504180547 | 81 | 211 | 4.3 | 5.2 | 0.00 | 0.00 | 0.00 | 41 | 1005.2 |
| 20260504180046 | 83 | 213 | 0.9 | 1.7 | 0.00 | 0.00 | 0.00 | 37 | 1005.4 |
| 20260504175542 | 81 | 175 | 3.5 | 6.1 | 0.00 | 0.00 | 0.00 | 43 | 1005.3 |
| 20260504175039 | 81 | 250 | 2.6 | 3.5 | 0.00 | 0.00 | 0.00 | 42 | 1005.3 |
| 20260504174537 | 81 | 210 | 4.3 | 7.0 | 0.00 | 0.00 | 0.00 | 37 | 1005.2 |
| 20260504174033 | 80 | 223 | 7.8 | 8.7 | 0.00 | 0.00 | 0.00 | 40 | 1005.5 |
| 20260504173530 | 80 | 221 | 4.3 | 6.1 | 0.00 | 0.00 | 0.00 | 39 | 1005.8 |
| 20260504173028 | 79 | 227 | 5.2 | 7.8 | 0.00 | 0.00 | 0.00 | 40 | 1005.7 |
| 20260504172524 | 79 | 224 | 5.2 | 6.1 | 0.00 | 0.00 | 0.00 | 43 | 1005.6 |
| 20260504172021 | 80 | 194 | 4.3 | 5.2 | 0.00 | 0.00 | 0.00 | 39 | 1005.6 |
| 20260504171517 | 79 | 180 | 1.7 | 1.7 | 0.00 | 0.00 | 0.00 | 45 | 1005.6 |
| 20260504171014 | 79 | 212 | 0.0 | 0.9 | 0.00 | 0.00 | 0.00 | 43 | 1005.6 |
| 20260504170510 | 78 | 223 | 3.5 | 6.1 | 0.00 | 0.00 | 0.00 | 43 | 1005.8 |
| 20260504160431 | 73 | 237 | 4.3 | 7.0 | 0.00 | 0.00 | 0.00 | 47 | 1005.4 |
| 20260504150854 | 71 | 265 | 5.2 | 9.6 | 0.00 | 0.00 | 0.00 | 49 | 1005.8 |
| 20260504150351 | 70 | 236 | 5.2 | 6.1 | 0.00 | 0.00 | 0.00 | 48 | 1005.9 |
| 20260504141321 | 67 | 229 | 3.5 | 5.2 | 0.00 | 0.00 | 0.00 | 53 | 1006.1 |
| 20260504140817 | 67 | 223 | 3.5 | 6.1 | 0.00 | 0.00 | 0.00 | 53 | 1006.2 |
| 20260504140313 | 67 | 209 | 3.5 | 5.2 | 0.00 | 0.00 | 0.00 | 53 | 1006.2 |
| 20260504130742 | 64 | 223 | 5.2 | 7.8 | 0.00 | 0.00 | 0.00 | 56 | 1006.2 |
| 20260504130238 | 64 | 233 | 6.1 | 7.8 | 0.00 | 0.00 | 0.00 | 55 | 1006.0 |
| 20260504120202 | 62 | 232 | 4.3 | 7.0 | 0.00 | 0.00 | 0.00 | 55 | 1006.1 |